Location: Unspecified
(0.0000°N, 0.0000°E)
Time: 11:16:51
(UTC+00:00)

deb Explorer IX - Pass Details

Date: 20 November 2019
Orbit: 546 x 1104 km, 38.8° (Epoch: 14 December)

Event Time Altitude Azimuth Distance (km) Brightness Sun altitude
Rises 18:10:17 0° 191° (S) 3,681 ? -5.8°
Reaches altitude 10° 18:15:38 10° 156° (SSE) 2,854 ? -7.1°
Maximum altitude 18:17:17 11° 142° (SE) 2,818 ? -7.4°
Drops below altitude 10° 18:18:58 10° 129° (SE) 2,907 ? -7.8°
Enters shadow 18:22:48 - 103° (ESE) 3,505 ? -8.7°
Sets 18:24:35 0° 95° (E) 3,910 - -9.2°
